Time,TemperatureF,DewpointF,PressureIn,WindDirection,WindDirectionDegrees,WindSpeedMPH,WindSpeedGustMPH,Humidity,HourlyPrecipIn,Conditions,Clouds,dailyrainin,SolarRadiationWatts/m^2,SoftwareType,DateUTC
2013-10-09 00:02:00,61.0,43.0,-100.00,South,190,6.0,17.0,51,0.00,,,0.00,0.000000,,2013-10-09 05:02:00,
2013-10-09 00:22:00,61.0,43.0,-100.00,South,190,6.0,17.0,51,0.00,,,0.00,0.000000,,2013-10-09 05:22:00,
2013-10-09 00:34:00,61.0,43.0,-100.00,South,190,6.0,17.0,51,0.00,,,0.00,0.000000,,2013-10-09 05:34:00,
2013-10-09 00:42:00,61.0,43.0,-100.00,South,190,6.0,17.0,51,0.00,,,0.00,0.000000,,2013-10-09 05:42:00,
2013-10-09 00:52:00,61.0,43.0,-100.00,South,190,6.0,17.0,51,0.00,,,0.00,0.000000,,2013-10-09 05:52:00,
2013-10-09 01:22:00,59.0,43.0,-100.00,South,181,5.0,14.0,55,0.00,,,0.00,0.000000,,2013-10-09 06:22:00,
2013-10-09 01:33:00,59.0,43.0,-100.00,South,181,5.0,14.0,55,0.00,,,0.00,0.000000,,2013-10-09 06:33:00,
2013-10-09 01:42:00,59.0,43.0,-100.00,South,181,5.0,14.0,55,0.00,,,0.00,0.000000,,2013-10-09 06:42:00,
2013-10-09 01:52:00,59.0,43.0,-100.00,South,181,5.0,14.0,55,0.00,,,0.00,0.000000,,2013-10-09 06:52:00,
2013-10-09 02:01:00,59.0,43.0,-100.00,South,181,5.0,14.0,55,0.00,,,0.00,0.000000,,2013-10-09 07:01:00,
2013-10-09 02:02:00,58.0,43.0,-100.00,South,177,5.0,15.0,58,0.00,,,0.00,0.000000,,2013-10-09 07:02:00,
2013-10-09 02:22:00,58.0,43.0,-100.00,South,177,5.0,15.0,58,0.00,,,0.00,0.000000,,2013-10-09 07:22:00,
2013-10-09 02:32:00,58.0,43.0,-100.00,South,177,5.0,15.0,58,0.00,,,0.00,0.000000,,2013-10-09 07:32:00,
2013-10-09 02:42:00,58.0,43.0,-100.00,South,177,5.0,15.0,58,0.00,,,0.00,0.000000,,2013-10-09 07:42:00,
2013-10-09 02:52:00,58.0,43.0,-100.00,South,177,5.0,15.0,58,0.00,,,0.00,0.000000,,2013-10-09 07:52:00,
2013-10-09 03:02:00,56.0,43.0,-100.00,SSE,167,4.0,13.0,62,0.00,,,0.00,0.000000,,2013-10-09 08:02:00,
2013-10-09 03:23:00,56.0,43.0,-100.00,SSE,167,4.0,13.0,62,0.00,,,0.00,0.000000,,2013-10-09 08:23:00,
2013-10-09 03:32:00,56.0,43.0,-100.00,SSE,167,4.0,13.0,62,0.00,,,0.00,0.000000,,2013-10-09 08:32:00,
2013-10-09 03:42:00,56.0,43.0,-100.00,SSE,167,4.0,13.0,62,0.00,,,0.00,0.000000,,2013-10-09 08:42:00,
2013-10-09 03:53:00,56.0,43.0,-100.00,SSE,167,4.0,13.0,62,0.00,,,0.00,0.000000,,2013-10-09 08:53:00,
2013-10-09 04:02:00,55.0,44.0,-100.00,South,171,5.0,10.0,66,0.00,,,0.00,0.000000,,2013-10-09 09:02:00,
2013-10-09 04:22:00,55.0,44.0,-100.00,South,171,5.0,10.0,66,0.00,,,0.00,0.000000,,2013-10-09 09:22:00,
2013-10-09 04:33:00,55.0,44.0,-100.00,South,171,5.0,10.0,66,0.00,,,0.00,0.000000,,2013-10-09 09:33:00,
2013-10-09 04:43:00,55.0,44.0,-100.00,South,171,5.0,10.0,66,0.00,,,0.00,0.000000,,2013-10-09 09:43:00,
2013-10-09 04:53:00,55.0,44.0,-100.00,South,171,5.0,10.0,66,0.00,,,0.00,0.000000,,2013-10-09 09:53:00,
2013-10-09 05:02:00,54.0,43.0,-100.00,South,174,6.0,11.0,67,0.00,,,0.00,0.000000,,2013-10-09 10:02:00,
2013-10-09 05:23:00,54.0,43.0,-100.00,South,174,6.0,11.0,67,0.00,,,0.00,0.000000,,2013-10-09 10:23:00,
2013-10-09 05:33:00,54.0,43.0,-100.00,South,174,6.0,11.0,67,0.00,,,0.00,0.000000,,2013-10-09 10:33:00,
2013-10-09 05:43:00,54.0,43.0,-100.00,South,174,6.0,11.0,67,0.00,,,0.00,0.000000,,2013-10-09 10:43:00,
2013-10-09 05:53:00,54.0,43.0,-100.00,South,174,6.0,11.0,67,0.00,,,0.00,0.000000,,2013-10-09 10:53:00,
2013-10-09 06:22:00,54.0,44.0,-100.00,South,172,5.0,11.0,70,0.00,,,0.00,0.000000,,2013-10-09 11:22:00,
2013-10-09 06:33:00,54.0,44.0,-100.00,South,172,5.0,11.0,70,0.00,,,0.00,0.000000,,2013-10-09 11:33:00,
2013-10-09 06:42:00,54.0,44.0,-100.00,South,172,5.0,11.0,70,0.00,,,0.00,0.000000,,2013-10-09 11:42:00,
2013-10-09 06:52:00,54.0,44.0,-100.00,South,172,5.0,11.0,70,0.00,,,0.00,0.000000,,2013-10-09 11:52:00,
2013-10-09 07:01:00,54.0,44.0,-100.00,South,172,5.0,11.0,70,0.00,,,0.00,0.000000,,2013-10-09 12:01:00,
2013-10-09 07:02:00,53.0,44.0,-100.00,SSE,167,5.0,11.0,72,0.00,,,0.00,0.000000,,2013-10-09 12:02:00,
2013-10-09 07:42:00,53.0,44.0,-100.00,SSE,167,5.0,11.0,72,0.00,,,0.00,0.000000,,2013-10-09 12:42:00,
2013-10-09 07:52:00,53.0,44.0,-100.00,SSE,167,5.0,11.0,72,0.00,,,0.00,0.000000,,2013-10-09 12:52:00,
2013-10-09 08:02:00,54.0,46.0,-100.00,South,173,6.0,13.0,73,0.00,,,0.00,20.000000,,2013-10-09 13:02:00,
2013-10-09 08:42:00,54.0,46.0,-100.00,South,173,6.0,13.0,73,0.00,,,0.00,20.000000,,2013-10-09 13:42:00,
2013-10-09 08:52:00,54.0,46.0,-100.00,South,173,6.0,13.0,73,0.00,,,0.00,20.000000,,2013-10-09 13:52:00,
2013-10-09 09:02:00,58.0,47.0,-100.00,South,177,5.0,13.0,67,0.00,,,0.00,138.000000,,2013-10-09 14:02:00,
2013-10-09 09:22:00,58.0,47.0,-100.00,South,177,5.0,13.0,67,0.00,,,0.00,138.000000,,2013-10-09 14:22:00,
2013-10-09 09:32:00,58.0,47.0,-100.00,South,177,5.0,13.0,67,0.00,,,0.00,138.000000,,2013-10-09 14:32:00,
2013-10-09 09:42:00,58.0,47.0,-100.00,South,177,5.0,13.0,67,0.00,,,0.00,138.000000,,2013-10-09 14:42:00,
2013-10-09 09:52:00,58.0,47.0,-100.00,South,177,5.0,13.0,67,0.00,,,0.00,138.000000,,2013-10-09 14:52:00,
2013-10-09 10:02:00,61.0,47.0,-100.00,SSW,197,7.0,18.0,60,0.00,,,0.00,312.000000,,2013-10-09 15:02:00,
2013-10-09 10:22:00,61.0,47.0,-100.00,SSW,197,7.0,18.0,60,0.00,,,0.00,312.000000,,2013-10-09 15:22:00,
2013-10-09 10:33:00,61.0,47.0,-100.00,SSW,197,7.0,18.0,60,0.00,,,0.00,312.000000,,2013-10-09 15:33:00,
2013-10-09 10:43:00,61.0,47.0,-100.00,SSW,197,7.0,18.0,60,0.00,,,0.00,312.000000,,2013-10-09 15:43:00,
2013-10-09 10:53:00,61.0,47.0,-100.00,SSW,197,7.0,18.0,60,0.00,,,0.00,312.000000,,2013-10-09 15:53:00,
2013-10-09 11:02:00,66.0,48.0,-100.00,SSW,201,7.0,16.0,53,0.00,,,0.00,480.000000,,2013-10-09 16:02:00,
2013-10-09 11:24:00,66.0,48.0,-100.00,SSW,201,7.0,16.0,53,0.00,,,0.00,480.000000,,2013-10-09 16:24:00,
2013-10-09 11:33:00,66.0,48.0,-100.00,SSW,201,7.0,16.0,53,0.00,,,0.00,480.000000,,2013-10-09 16:33:00,
2013-10-09 11:42:00,66.0,48.0,-100.00,SSW,201,7.0,16.0,53,0.00,,,0.00,480.000000,,2013-10-09 16:42:00,
2013-10-09 11:53:00,66.0,48.0,-100.00,SSW,201,7.0,16.0,53,0.00,,,0.00,480.000000,,2013-10-09 16:53:00,
2013-10-09 12:02:00,68.0,49.0,-100.00,South,185,8.0,18.0,50,0.00,,,0.00,605.000000,,2013-10-09 17:02:00,
2013-10-09 12:23:00,68.0,49.0,-100.00,South,185,8.0,18.0,50,0.00,,,0.00,605.000000,,2013-10-09 17:23:00,
2013-10-09 12:33:00,68.0,49.0,-100.00,South,185,8.0,18.0,50,0.00,,,0.00,605.000000,,2013-10-09 17:33:00,
2013-10-09 12:42:00,68.0,49.0,-100.00,South,185,8.0,18.0,50,0.00,,,0.00,605.000000,,2013-10-09 17:42:00,
2013-10-09 12:52:00,68.0,49.0,-100.00,South,185,8.0,18.0,50,0.00,,,0.00,605.000000,,2013-10-09 17:52:00,
2013-10-09 13:02:00,70.0,49.0,-100.00,SSW,209,8.0,19.0,47,0.00,,,0.00,648.000000,,2013-10-09 18:02:00,
2013-10-09 13:22:00,70.0,49.0,-100.00,SSW,209,8.0,19.0,47,0.00,,,0.00,648.000000,,2013-10-09 18:22:00,
2013-10-09 13:32:00,70.0,49.0,-100.00,SSW,209,8.0,19.0,47,0.00,,,0.00,648.000000,,2013-10-09 18:32:00,
2013-10-09 13:42:00,70.0,49.0,-100.00,SSW,209,8.0,19.0,47,0.00,,,0.00,648.000000,,2013-10-09 18:42:00,
2013-10-09 13:52:00,70.0,49.0,-100.00,SSW,209,8.0,19.0,47,0.00,,,0.00,648.000000,,2013-10-09 18:52:00,
2013-10-09 14:02:00,72.0,49.0,-100.00,SSW,206,8.0,15.0,44,0.00,,,0.00,681.000000,,2013-10-09 19:02:00,
2013-10-09 14:22:00,72.0,49.0,-100.00,SSW,206,8.0,15.0,44,0.00,,,0.00,681.000000,,2013-10-09 19:22:00,
2013-10-09 14:32:00,72.0,49.0,-100.00,SSW,206,8.0,15.0,44,0.00,,,0.00,681.000000,,2013-10-09 19:32:00,
2013-10-09 14:42:00,72.0,49.0,-100.00,SSW,206,8.0,15.0,44,0.00,,,0.00,681.000000,,2013-10-09 19:42:00,
2013-10-09 14:53:00,72.0,49.0,-100.00,SSW,206,8.0,15.0,44,0.00,,,0.00,681.000000,,2013-10-09 19:53:00,
2013-10-09 15:02:00,72.0,49.0,-100.00,South,184,10.0,20.0,44,0.00,,,0.00,615.000000,,2013-10-09 20:02:00,
2013-10-09 15:22:00,72.0,49.0,-100.00,South,184,10.0,20.0,44,0.00,,,0.00,615.000000,,2013-10-09 20:22:00,
2013-10-09 15:32:00,72.0,49.0,-100.00,South,184,10.0,20.0,44,0.00,,,0.00,615.000000,,2013-10-09 20:32:00,
2013-10-09 15:43:00,72.0,49.0,-100.00,South,184,10.0,20.0,44,0.00,,,0.00,615.000000,,2013-10-09 20:43:00,
2013-10-09 15:52:00,72.0,49.0,-100.00,South,184,10.0,20.0,44,0.00,,,0.00,615.000000,,2013-10-09 20:52:00,
2013-10-09 16:02:00,73.0,48.0,-100.00,South,170,8.0,17.0,41,0.00,,,0.00,482.000000,,2013-10-09 21:02:00,
2013-10-09 16:23:00,73.0,48.0,-100.00,South,170,8.0,17.0,41,0.00,,,0.00,482.000000,,2013-10-09 21:23:00,
2013-10-09 16:34:00,73.0,48.0,-100.00,South,170,8.0,17.0,41,0.00,,,0.00,482.000000,,2013-10-09 21:34:00,
2013-10-09 16:44:00,73.0,48.0,-100.00,South,170,8.0,17.0,41,0.00,,,0.00,482.000000,,2013-10-09 21:44:00,
2013-10-09 16:54:00,73.0,48.0,-100.00,South,170,8.0,17.0,41,0.00,,,0.00,482.000000,,2013-10-09 21:54:00,
2013-10-09 17:02:00,72.0,46.0,-100.00,SSW,194,6.0,16.0,40,0.00,,,0.00,319.000000,,2013-10-09 22:02:00,
2013-10-09 17:24:00,72.0,46.0,-100.00,SSW,194,6.0,16.0,40,0.00,,,0.00,319.000000,,2013-10-09 22:24:00,
2013-10-09 17:34:00,72.0,46.0,-100.00,SSW,194,6.0,16.0,40,0.00,,,0.00,319.000000,,2013-10-09 22:34:00,
2013-10-09 17:43:00,72.0,46.0,-100.00,SSW,194,6.0,16.0,40,0.00,,,0.00,319.000000,,2013-10-09 22:43:00,
2013-10-09 17:53:00,72.0,46.0,-100.00,SSW,194,6.0,16.0,40,0.00,,,0.00,319.000000,,2013-10-09 22:53:00,
2013-10-09 18:02:00,68.0,47.0,-100.00,SSE,167,4.0,14.0,47,0.00,,,0.00,95.000000,,2013-10-09 23:02:00,
2013-10-09 18:43:00,68.0,47.0,-100.00,SSE,167,4.0,14.0,47,0.00,,,0.00,95.000000,,2013-10-09 23:43:00,
2013-10-09 18:53:00,68.0,47.0,-100.00,SSE,167,4.0,14.0,47,0.00,,,0.00,95.000000,,2013-10-09 23:53:00,
2013-10-09 19:22:00,63.0,48.0,-100.00,SSE,160,3.0,8.0,58,0.00,,,0.00,6.000000,,2013-10-10 00:22:00,
2013-10-09 19:32:00,63.0,48.0,-100.00,SSE,160,3.0,8.0,58,0.00,,,0.00,6.000000,,2013-10-10 00:32:00,
2013-10-09 19:42:00,63.0,48.0,-100.00,SSE,160,3.0,8.0,58,0.00,,,0.00,6.000000,,2013-10-10 00:42:00,
2013-10-09 19:52:00,63.0,48.0,-100.00,SSE,160,3.0,8.0,58,0.00,,,0.00,6.000000,,2013-10-10 00:52:00,
2013-10-09 20:01:00,63.0,48.0,-100.00,SSE,160,3.0,8.0,58,0.00,,,0.00,6.000000,,2013-10-10 01:01:00,
2013-10-09 20:02:00,61.0,48.0,-100.00,SSE,156,4.0,8.0,62,0.00,,,0.00,0.000000,,2013-10-10 01:02:00,
2013-10-09 20:42:00,61.0,48.0,-100.00,SSE,156,4.0,8.0,62,0.00,,,0.00,0.000000,,2013-10-10 01:42:00,
2013-10-09 20:52:00,61.0,48.0,-100.00,SSE,156,4.0,8.0,62,0.00,,,0.00,0.000000,,2013-10-10 01:52:00,
2013-10-09 21:02:00,58.0,48.0,-100.00,SE,138,3.0,6.0,69,0.00,,,0.00,0.000000,,2013-10-10 02:02:00,
2013-10-09 21:52:00,58.0,48.0,-100.00,SE,138,3.0,6.0,69,0.00,,,0.00,0.000000,,2013-10-10 02:52:00,
2013-10-09 22:02:00,51.0,47.0,-100.00,ENE,67,0.0,5.0,85,0.00,,,0.00,0.000000,,2013-10-10 03:02:00,
2013-10-09 22:44:00,51.0,47.0,-100.00,ENE,67,0.0,5.0,85,0.00,,,0.00,0.000000,,2013-10-10 03:44:00,
2013-10-09 22:55:00,51.0,47.0,-100.00,ENE,67,0.0,5.0,85,0.00,,,0.00,0.000000,,2013-10-10 03:55:00,